Eagle Creek, IN

3:21 AM EDT on June 27, 2019 (GMT -0400)
Eagle Creek

Weather History for KEYE - May, 2019

Change the Weather History Date:

Wednesday, May 22, 2019

  Actual Average Record
Temperature  
Mean Temperature 67 °F 65 °F  
Max Temperature 77 °F 74 °F 84 °F (2007)
Min Temperature 57 °F 55 °F 39 °F (1997)
Degree Days  
Heating Degree Days 0 3  
Month to date heating degree days 129 117  
Since 1 July heating degree days 5307 5312  
Cooling Degree Days 2 3  
Month to date cooling degree days 23 37  
Year to date cooling degree days 23 52  
Growing Degree Days 16 (Base 50)    
Moisture  
Dew Point 59 °F    
Average Humidity 79    
Maximum Humidity 93    
Minimum Humidity 64    
Precipitation  
Precipitation 0.26 in 0.15 in 0.44 in (2013)
Month to date precipitation 2.92 4.10  
Year to date precipitation 19.58 15.64  
Sea Level Pressure  
Sea Level Pressure 29.96 in    
Wind  
Wind Speed 6 mph (SSE)    
Max Wind Speed 16 mph    
Max Gust Speed 24 mph    
Visibility 9 miles    
Events Rain    
T = Trace of Precipitation, MM = Missing Value Source: NWS Daily Summary

Daily Weather History Graph

Daily Weather History Graph

Search for Another Location

Airport or City:

Astronomy

May. 22, 2019 Rise Set
Actual Time 6:24 AM EDT 8:59 PM EDT
Civil Twilight 5:53 AM EDT 9:30 PM EDT
Nautical Twilight 5:14 AM EDT 10:09 PM EDT
Astronomical Twilight 4:31 AM EDT 10:53 PM EDT
Moon No Moon Rise 9:32 AM EDT (5/22)
Length of Visible Light 15h 37m
Length of Day
14h 34m
Waning Gibbous, 85% of the Moon is Illuminated
May 22
Waning Gibbous
May 26
Last Quarter
Jun 3
New
Jun 10
First Quarter
Jun 17
Full

Hourly Weather History & Observations

Time (EDT) Temp. Dew Point Humidity Pressure Visibility Wind Dir Wind Speed Gust Speed Precip Events Conditions
12:53 AM 57.9 °F 46.0 °F 65% 29.92 in 10.0 mi ESE 12.7 mph 20.7 mph N/A   Clear
1:53 AM 57.9 °F 48.0 °F 70% 29.90 in 10.0 mi ESE 11.5 mph - N/A   Clear
2:53 AM 60.1 °F 48.9 °F 67% 29.88 in 10.0 mi ESE 13.8 mph 21.9 mph N/A   Scattered Clouds
3:53 AM 60.1 °F 50.0 °F 69% 29.87 in 10.0 mi SE 9.2 mph 18.4 mph 0.00 in Rain Light Rain
4:53 AM 59.0 °F 53.1 °F 81% 29.91 in 9.0 mi WSW 3.5 mph - 0.02 in Rain Light Rain
5:53 AM 57.9 °F 55.0 °F 90% 29.92 in 10.0 mi NNW 6.9 mph - 0.01 in Rain Light Rain
6:53 AM 57.0 °F 55.0 °F 93% 29.92 in 9.0 mi Calm Calm - 0.02 in Rain Light Rain
7:38 AM 57.0 °F 55.9 °F 96% 29.95 in 2.5 mi Calm Calm - 0.03 in Rain Rain
7:46 AM 57.0 °F 55.9 °F 96% 29.96 in 4.0 mi Calm Calm - 0.04 in Rain Light Rain
7:53 AM 57.0 °F 55.9 °F 96% 29.96 in 4.0 mi Calm Calm - 0.05 in Rain Light Rain
8:53 AM 57.9 °F 55.9 °F 93% 29.96 in 8.0 mi East 3.5 mph - 0.06 in   Overcast
9:53 AM 59.0 °F 57.0 °F 93% 29.94 in 9.0 mi SE 5.8 mph - 0.04 in Rain Light Rain
10:53 AM 60.1 °F 57.9 °F 93% 29.96 in 3.0 mi SE 6.9 mph - 0.04 in Rain Rain
11:34 AM 62.1 °F 60.1 °F 93% 29.99 in 7.0 mi Variable 4.6 mph - 0.02 in Rain Light Rain
11:44 AM 63.0 °F 61.0 °F 93% 29.98 in 10.0 mi South 9.2 mph - 0.02 in   Overcast
11:53 AM 63.0 °F 61.0 °F 93% 29.99 in 10.0 mi Variable 6.9 mph - 0.02 in   Mostly Cloudy
12:43 PM 66.0 °F 62.1 °F 87% 29.99 in 10.0 mi SSW 8.1 mph - N/A   Overcast
12:53 PM 66.9 °F 62.1 °F 84% 29.98 in 10.0 mi SSW 11.5 mph 18.4 mph N/A   Mostly Cloudy
1:09 PM 66.9 °F 61.0 °F 81% 29.97 in 10.0 mi South 6.9 mph - N/A   Scattered Clouds
1:53 PM 70.0 °F 62.1 °F 76% 29.96 in 10.0 mi South 10.4 mph - N/A   Mostly Cloudy
2:53 PM 73.0 °F 61.0 °F 66% 29.97 in 10.0 mi South 8.1 mph 17.3 mph N/A   Partly Cloudy
3:53 PM 73.9 °F 64.0 °F 71% 29.97 in 10.0 mi South 8.1 mph - N/A   Mostly Cloudy
4:29 PM 75.9 °F 64.0 °F 67% 29.98 in 10.0 mi South 11.5 mph 17.3 mph N/A   Scattered Clouds
4:53 PM 75.9 °F 64.0 °F 67% 29.96 in 10.0 mi South 6.9 mph 18.4 mph N/A   Mostly Cloudy
5:53 PM 75.9 °F 64.0 °F 67% 29.97 in 10.0 mi South 9.2 mph 18.4 mph N/A   Partly Cloudy
6:14 PM 75.9 °F 64.0 °F 67% 29.98 in 10.0 mi SSE 10.4 mph - N/A   Mostly Cloudy
6:25 PM 75.0 °F 64.0 °F 69% 29.98 in 10.0 mi SSE 10.4 mph 17.3 mph N/A   Scattered Clouds
6:53 PM 75.9 °F 64.0 °F 67% 29.97 in 10.0 mi South 6.9 mph - N/A   Partly Cloudy
7:53 PM 75.0 °F 64.0 °F 69% 29.98 in 10.0 mi South 6.9 mph - N/A   Clear
8:53 PM 73.0 °F 64.9 °F 76% 29.99 in 10.0 mi South 5.8 mph - N/A   Clear
9:53 PM 71.1 °F 64.9 °F 81% 29.97 in 10.0 mi SE 5.8 mph - N/A   Clear
10:53 PM 69.1 °F 64.9 °F 87% 29.99 in 10.0 mi SSE 4.6 mph - N/A   Clear
11:53 PM 68.0 °F 64.0 °F 87% 29.99 in 10.0 mi Calm Calm - N/A   Clear